Lid_Strength_Index
3 3 3 2 2 2 2 2 1 1 1 2 3 1 1 1 1 2 2 2 2 2
4 4 4 4 2 2 2 2 2 1 3 3 5 1 1 1 1 2 1 1 1 2
6 5 4 4 4 3 2 3 3 4 5 5 6 5 1 1 1 2 2 2 2 2
7 6 6 5 5 4 4 5 4 5 6 6 7 7 7 7 6 4 7 7 5 8
8 8 7 6 6 5 6 5 6 6 7 7 8 8 9 10 10 10 10 10 10 10
9 9 8 8 7 7 7 7 7 7 8 9 9 10 11 12 12 13 13 12 12 12
10 9 9 8 8 8 8 8 9 9 10 12 11 12 13 13 14 15 15 14 13 13
10 10 10 9 9 9 9 10 10 11 12 13 13 13 14 14 15 15 16 15 15 14
11 11 11 10 10 10 11 11 11 12 14 15 14 14 14 15 16 15 16 17 16 16
12 11 11 11 11 12 12 12 12 13 14 15 15 14 15 15 16 16 16 17 16 16
13 12 12 12 12 13 13 14 15 14 15 15 15 14 15 15 15 16 16 16 16 16
13 13 13 13 14 14 14 15 15 15 15 15 15 14 14 15 15 15 16 16 17 17
14 14 14 14 15 14 14 15 15 14 14 15 15 13 14 15 15 16 16 16 15 15
15 14 14 14 14 15 15 15 15 15 15 15 15 14 13 14 15 16 16 16 16 15